Location: Peterborough
(44.3091°N, 78.3197°W)
Time: 00:05:49
(UTC-04:00)

S-56A Canister/Altair - Pass Details

Date: 26 March 2023
Orbit: 639 x 2492 km, 38.9° (Epoch: 02 June)

Event Time Altitude Azimuth Distance (km) Brightness Sun altitude
Rises 02:03:36 0° 284° (WNW) 6,066 12.1 -42.5°
Reaches altitude 10° 02:07:55 10° 277° (W) 5,133 11.6 -42.3°
Enters shadow 02:10:51 17° 270° (W) 4,550 11.2 -42.2°
